Theta_e
345 345 345 347 348 349 347 349 351 353 353 340 339 346 353 362 362 366 367 364 363 360 354 352 350 349 354 352 352 352 350 353 355 349 346 353 354 351 353 352 353 354 354 354 353 352 351 351 353 354 354 354 354 353 353 353 352 353 352 352 352 352 352 352 351 351 351 351 351 351 350 349 349 351 352 352 353 353 352 351 351 351 351 350 351 351 349 349 350 350 351 350 348 349 349 349 349
346 346 346 349 349 350 347 350 355 352 349 339 340 353 356 364 363 364 367 364 362 357 353 350 348 350 353 349 349 351 353 352 351 351 349 352 352 353 353 352 353 353 354 353 353 353 352 352 353 354 354 354 354 354 353 353 354 354 354 354 353 353 352 352 352 351 351 350 351 351 351 351 350 350 352 352 352 352 351 351 352 352 351 351 351 351 349 349 350 349 350 349 348 348 348 349 350
347 346 346 348 348 351 350 353 355 348 349 344 345 359 361 364 364 364 365 363 357 354 351 348 348 351 350 350 351 352 354 349 347 348 348 351 352 353 352 352 353 353 353 353 353 353 353 351 353 354 354 354 353 353 352 352 354 355 354 354 354 354 353 353 353 352 352 351 351 351 352 351 350 350 352 352 352 352 351 351 351 351 351 351 351 351 350 350 349 348 348 348 348 348 348 349 349
346 345 346 346 346 351 354 355 356 349 348 345 346 361 361 362 364 363 363 359 354 351 349 349 351 353 350 351 352 351 353 350 348 348 349 351 352 352 352 352 352 353 352 353 353 352 353 351 353 354 354 353 352 352 352 352 354 355 355 354 354 353 352 352 353 352 351 351 351 352 352 352 351 352 352 352 352 352 351 351 351 352 351 351 352 352 351 351 349 349 348 348 350 350 349 349 349
346 346 346 349 352 355 358 358 359 353 350 348 351 361 361 360 363 363 361 355 352 351 350 351 353 353 351 352 352 351 351 349 350 349 349 351 352 352 352 352 352 352 352 353 352 352 352 350 352 354 353 352 350 350 350 351 353 354 354 354 354 353 353 353 353 353 352 352 352 352 352 352 352 353 352 352 352 352 351 350 351 352 351 351 353 352 351 351 350 350 350 350 351 350 348 347 348
346 347 347 351 356 356 360 359 355 351 354 359 356 359 361 360 363 361 358 354 353 351 351 352 352 353 352 353 352 351 351 349 350 350 351 351 351 351 352 352 352 351 352 352 350 352 352 350 353 352 352 350 348 348 349 350 352 354 354 354 354 353 353 353 353 353 353 353 353 353 353 352 352 352 352 352 351 351 351 351 351 352 351 351 352 352 351 351 350 349 350 351 350 348 346 346 347
347 349 349 353 356 356 361 355 350 348 351 361 358 360 363 360 362 360 358 356 353 351 351 351 350 354 354 352 351 351 350 350 350 349 350 350 351 352 352 351 352 352 352 351 351 352 350 350 352 352 352 350 349 349 349 351 352 352 353 354 354 353 353 352 352 352 353 353 353 353 353 353 352 352 352 351 351 351 352 352 352 352 350 351 351 351 351 351 350 350 350 351 350 348 346 346 347
349 351 351 357 362 362 361 350 348 354 356 359 357 362 364 362 360 360 361 357 356 353 351 351 350 356 355 353 354 353 351 350 349 350 350 350 352 351 351 350 351 352 352 351 351 352 349 350 353 352 352 351 350 350 351 352 352 351 352 355 354 353 352 352 352 353 353 353 353 353 353 353 352 352 351 352 352 353 353 353 352 351 349 350 351 351 351 350 351 350 350 350 350 348 348 347 347
349 353 355 359 365 359 352 347 349 358 359 358 358 361 363 361 358 361 363 359 357 353 352 352 350 357 356 355 355 351 350 351 349 350 350 351 352 352 352 351 351 351 351 350 351 353 350 352 354 353 353 352 352 351 351 351 351 351 353 354 353 352 353 353 353 352 352 352 353 353 352 352 352 352 352 352 353 353 353 352 352 351 349 350 350 351 351 349 350 351 351 351 351 350 350 348 347
350 354 359 361 362 347 338 346 351 358 360 359 358 362 363 359 359 363 363 362 359 354 353 350 350 357 356 357 355 351 351 351 349 350 350 350 351 352 352 352 352 351 350 350 350 352 352 352 354 354 353 352 352 352 351 351 351 351 353 353 351 351 353 353 352 350 351 352 352 353 353 352 353 352 352 352 352 353 353 352 352 351 350 350 351 352 350 348 349 351 351 350 350 349 349 348 347
355 353 357 360 352 338 335 343 349 358 361 360 360 362 361 361 362 362 363 362 357 354 353 350 353 355 355 357 354 352 351 350 350 351 350 350 351 352 353 352 351 350 350 350 350 353 353 352 354 354 354 353 353 351 351 352 351 351 351 352 351 352 353 352 351 350 350 351 351 352 352 353 353 351 351 351 352 353 352 352 352 352 351 350 351 351 350 349 349 350 349 349 348 348 348 347 347
358 358 359 357 346 341 342 344 349 358 362 362 362 360 358 359 362 363 363 360 356 355 353 353 355 353 357 357 353 352 350 349 349 350 350 350 351 352 353 352 350 350 350 349 350 353 354 354 354 354 353 353 354 353 353 352 350 352 352 352 353 353 353 352 351 351 350 351 351 352 352 353 353 352 351 352 352 351 351 351 352 353 352 350 350 350 350 349 349 349 349 348 347 348 348 346 346
357 361 361 355 350 351 349 347 352 358 359 363 361 359 357 358 361 361 360 357 356 356 354 353 352 353 357 356 353 350 348 350 349 349 350 350 351 353 353 352 351 350 350 349 351 353 355 355 355 353 351 352 353 352 351 350 351 352 352 353 353 353 353 352 351 351 351 350 351 352 352 353 352 352 352 352 351 350 350 350 351 353 352 351 349 349 350 350 349 348 349 347 348 347 346 346 346
357 360 361 358 355 356 351 348 351 350 352 361 359 357 357 358 359 357 357 356 356 355 353 353 350 355 358 356 353 348 347 350 350 349 349 350 351 352 353 353 351 350 350 348 351 354 355 355 355 354 353 353 352 349 347 348 350 351 352 352 352 352 352 352 351 351 351 351 351 352 352 352 353 353 353 352 351 351 351 351 351 352 352 350 349 348 348 350 350 349 348 347 348 347 346 346 347
356 357 361 360 356 352 351 351 349 347 350 361 358 356 357 358 358 354 355 356 355 353 353 354 351 356 357 357 354 349 347 348 348 349 348 349 350 352 353 352 352 351 349 348 351 354 354 355 355 354 353 354 353 351 348 346 349 350 351 351 351 351 351 352 352 352 352 352 352 352 352 352 353 354 353 353 352 352 353 353 353 353 352 351 350 349 348 349 350 349 349 347 347 347 346 346 348
355 357 362 358 350 345 349 353 351 351 353 360 358 355 359 357 356 354 354 353 354 353 351 354 352 354 354 354 354 349 349 348 348 348 348 349 349 351 352 353 352 351 350 348 350 352 353 354 354 354 353 353 355 355 350 348 348 349 351 351 351 352 353 353 353 353 353 353 352 351 351 353 354 353 353 353 354 353 353 354 353 353 352 351 352 351 350 351 350 350 349 349 347 347 346 346 347
354 359 363 354 347 345 349 354 354 353 356 359 357 356 360 358 355 353 353 352 353 354 352 353 351 352 352 353 353 349 348 347 348 348 348 349 349 351 351 352 352 350 350 348 350 352 353 354 354 353 353 355 357 356 353 351 348 349 350 350 352 353 352 352 353 353 352 350 349 351 354 356 356 355 355 354 354 353 353 353 353 353 352 351 351 352 352 351 351 351 349 349 348 347 347 346 346
356 362 359 350 350 351 351 355 353 353 357 358 357 356 359 357 355 353 352 353 353 354 353 352 352 352 353 354 352 349 348 348 348 348 348 349 348 350 350 351 350 350 350 348 349 352 353 354 355 353 353 357 357 355 355 352 349 350 352 352 352 352 352 353 354 355 354 352 352 356 357 357 357 357 357 356 356 354 352 352 352 352 351 351 350 350 351 351 350 350 348 348 348 349 349 348 347
358 361 356 351 356 355 351 354 351 351 355 356 357 355 357 357 356 353 354 356 354 355 354 352 353 352 352 353 351 349 349 349 348 348 349 348 349 350 350 350 349 349 349 348 349 351 353 353 354 352 353 357 357 355 356 354 351 352 355 355 354 353 353 356 357 357 356 356 355 357 357 356 356 355 354 354 354 352 351 350 351 351 349 349 350 349 350 351 351 349 349 348 348 349 348 349 348
357 357 357 356 356 355 351 353 350 351 352 354 356 355 357 355 354 353 356 357 355 356 355 354 354 352 350 349 351 350 349 349 349 348 349 348 349 349 350 350 350 349 349 347 349 351 351 352 353 352 354 356 355 355 355 353 353 355 357 355 354 354 354 356 356 356 356 355 355 354 354 354 354 352 351 352 353 353 351 350 351 351 351 350 351 352 352 352 352 351 351 351 350 350 349 349 349
355 355 358 357 354 355 353 352 351 350 349 353 355 355 357 354 353 354 356 357 356 355 354 355 355 351 348 348 349 350 349 349 349 348 347 347 348 349 350 350 350 349 349 347 349 351 351 351 352 353 353 354 355 355 355 353 354 355 355 354 354 355 354 354 354 354 354 354 353 353 352 353 354 353 353 353 355 355 355 354 354 355 355 353 352 355 355 354 354 353 353 352 351 351 351 351 350
354 355 356 355 354 356 353 351 352 351 350 353 355 356 357 354 354 353 356 357 356 354 352 353 352 349 349 348 349 351 349 349 349 348 347 346 348 348 350 349 349 349 349 349 350 351 352 351 351 352 353 354 355 355 356 354 355 354 354 354 354 353 354 353 353 353 353 353 352 351 352 353 354 355 355 354 354 355 355 356 355 356 356 355 353 354 354 354 355 354 354 353 352 352 352 352 351
354 355 353 355 355 358 355 352 352 351 351 354 355 355 355 354 355 354 354 356 353 352 351 351 351 350 351 349 350 348 346 347 349 348 347 347 348 348 349 348 349 350 350 350 351 350 351 351 351 352 353 354 355 355 355 355 355 354 353 354 353 353 353 352 351 352 353 353 352 352 352 353 354 354 354 354 354 355 354 354 355 355 356 356 356 355 354 355 355 355 355 354 354 352 353 353 353
353 354 353 354 354 355 354 353 352 349 350 351 353 353 354 355 356 354 353 353 352 351 352 351 352 353 352 349 347 346 347 348 348 349 347 347 348 348 348 348 349 350 350 351 351 350 350 351 352 352 353 354 355 355 355 355 355 354 354 353 353 353 352 350 351 352 353 353 353 353 353 353 354 354 353 354 354 354 353 353 354 355 355 356 357 356 355 355 356 356 355 354 354 353 353 353 353
350 352 353 355 353 353 351 351 350 348 350 348 351 353 353 354 354 354 353 352 352 351 352 351 351 352 349 348 347 347 347 349 349 349 348 348 348 349 348 349 349 349 350 351 350 351 351 351 352 352 353 354 354 355 354 354 355 354 352 352 353 353 351 351 352 352 353 353 353 354 354 354 354 354 353 354 355 355 354 355 355 355 356 356 356 355 356 356 356 357 356 354 354 354 353 353 353
346 349 350 352 351 351 350 350 350 349 349 348 351 352 352 351 352 355 352 351 352 352 352 351 351 350 349 348 347 347 346 347 350 349 348 349 349 349 349 349 350 350 350 351 350 351 351 351 352 351 352 353 353 354 353 353 354 354 353 353 354 352 352 353 353 352 352 352 353 353 355 355 355 354 354 354 356 356 356 355 356 356 356 355 355 355 356 356 356 357 357 356 355 354 354 353 353
343 345 345 349 349 350 350 350 349 348 348 347 350 351 351 350 352 354 351 349 353 353 353 352 352 351 350 349 347 349 347 348 350 349 349 349 350 349 349 349 349 350 350 350 351 350 351 351 352 351 352 353 353 352 352 352 352 353 353 353 353 353 354 354 353 352 352 353 354 353 354 355 356 355 355 356 356 356 357 356 355 356 356 355 356 356 356 357 356 357 357 357 356 356 355 354 353
340 342 343 344 344 346 347 348 348 346 347 345 348 350 350 350 352 353 350 351 353 353 354 353 353 351 350 350 348 349 350 351 351 349 350 348 350 349 349 350 349 349 350 350 351 351 352 350 351 352 352 353 352 352 352 352 352 353 353 353 353 353 354 353 352 353 353 354 355 353 354 355 356 356 357 357 357 356 356 356 355 355 355 355 356 356 356 357 356 357 357 357 357 355 354 354 353
336 338 340 341 341 344 344 346 345 346 347 345 347 347 349 353 351 350 350 353 353 354 355 354 354 352 351 351 349 349 351 352 352 351 350 349 349 349 350 351 350 350 350 350 351 351 350 349 350 352 352 353 353 352 352 352 352 353 353 353 353 354 354 353 353 353 353 355 354 354 354 355 356 358 358 358 357 356 356 356 355 355 355 355 355 354 356 357 356 355 355 356 355 353 352 352 352
331 332 336 338 339 342 345 345 344 346 346 345 346 340 343 353 350 349 352 352 354 354 355 354 354 353 351 351 350 350 351 352 353 351 350 349 349 350 351 350 349 349 350 350 351 351 350 349 350 351 353 353 353 354 353 353 353 353 352 353 354 354 354 353 354 353 354 354 354 354 355 355 357 359 359 359 358 356 356 356 355 354 355 357 355 354 356 357 356 355 353 353 353 351 351 350 350
328 327 331 334 330 335 345 345 343 347 344 345 346 334 340 352 349 347 352 351 354 355 355 355 354 354 352 352 351 350 351 353 353 352 351 351 350 351 351 349 350 349 350 351 350 351 350 350 350 350 352 353 353 354 355 354 354 353 353 353 353 354 354 354 353 352 353 353 353 354 354 355 356 356 357 359 359 356 356 355 354 355 355 356 355 355 357 357 357 356 354 353 353 351 351 351 351
329 322 320 328 327 333 346 344 343 348 344 345 345 335 341 351 347 347 351 351 353 354 355 355 354 355 354 352 352 349 351 352 353 353 352 351 350 351 351 350 350 350 351 352 350 350 351 352 351 350 352 353 354 354 355 355 355 354 354 353 353 354 354 354 353 352 352 352 353 354 355 356 356 355 353 357 359 357 356 355 354 356 356 356 356 356 357 357 357 357 355 353 354 353 351 350 350
327 321 315 321 326 330 340 342 344 346 345 347 344 339 345 350 347 348 351 350 352 353 355 356 354 355 354 353 352 351 350 352 353 353 353 351 351 351 351 351 351 351 352 352 351 351 352 353 352 350 351 352 353 354 355 356 355 356 355 354 353 353 352 351 352 352 352 352 353 354 355 355 356 356 353 354 359 357 356 356 355 357 358 357 358 357 356 357 357 356 357 357 357 355 350 346 345
319 321 318 321 327 328 332 339 345 345 344 347 346 345 347 350 347 348 350 351 351 352 354 356 356 355 355 354 352 351 351 350 351 353 353 352 352 352 351 351 351 351 353 353 353 353 353 353 352 350 351 351 353 354 355 355 355 355 355 353 353 352 351 349 350 350 351 351 352 353 356 356 355 358 355 353 359 358 357 357 356 358 359 359 359 357 357 358 357 357 358 358 358 354 348 344 343
314 317 316 318 325 328 330 336 342 344 345 346 346 346 348 347 347 349 350 350 351 352 353 355 355 356 357 356 354 352 351 351 351 352 354 352 353 353 351 352 352 352 353 352 353 353 353 354 353 352 353 352 353 354 355 354 354 354 355 353 353 352 350 349 349 349 349 350 351 353 356 356 356 358 357 355 359 360 357 357 358 359 359 360 360 357 358 358 357 357 357 360 358 352 347 345 344
319 320 318 316 321 325 333 340 340 344 345 345 346 345 348 346 345 349 348 349 351 351 353 355 356 356 356 356 354 353 353 351 352 352 352 353 353 353 352 352 352 352 353 353 354 355 355 355 354 354 355 354 353 355 354 352 352 352 352 352 352 351 348 348 349 348 347 347 350 353 355 356 357 359 358 357 360 361 359 359 360 360 359 360 361 357 358 358 356 357 359 361 358 351 346 345 344
326 324 322 320 320 322 334 341 339 340 340 342 346 346 347 346 344 347 347 349 351 351 353 355 357 357 356 357 355 355 354 352 353 353 353 353 354 353 353 352 352 352 353 353 355 356 355 355 355 356 356 355 354 355 353 350 349 350 350 349 348 348 348 347 347 346 345 346 349 352 355 356 357 358 359 360 361 361 360 360 361 361 359 358 360 358 357 357 354 354 358 361 357 350 346 345 344
326 324 322 321 321 323 333 339 337 338 337 338 344 343 344 346 345 345 346 349 350 350 352 354 357 357 357 358 357 356 355 354 353 352 353 354 353 354 353 353 353 352 353 353 355 357 356 356 356 357 357 355 355 354 352 350 349 349 348 346 343 344 345 347 346 343 344 345 349 353 354 356 357 358 358 359 360 360 361 360 360 361 361 360 362 361 357 355 353 353 356 360 357 349 346 345 344
324 324 321 318 320 325 330 337 337 335 335 336 343 340 339 344 343 343 345 348 350 350 351 354 358 359 358 357 357 357 356 355 353 351 352 354 353 354 354 354 353 353 353 354 355 357 357 356 356 357 356 356 356 354 353 352 351 351 347 344 342 341 344 346 344 343 343 344 348 352 353 356 358 358 358 359 359 360 360 360 359 360 362 362 363 364 361 356 354 354 355 358 356 350 347 347 345
321 321 317 316 321 323 321 328 335 336 334 337 340 337 337 343 342 342 343 347 351 350 349 353 356 357 358 357 356 357 357 357 355 352 353 354 355 355 355 355 355 353 354 353 354 355 357 357 356 357 356 355 356 354 354 353 353 354 350 348 346 343 346 348 346 346 347 346 347 351 354 356 358 358 358 359 359 360 360 360 359 360 361 362 362 365 365 360 358 358 358 359 358 351 347 347 347
318 319 317 318 323 325 323 328 335 334 334 337 336 329 330 338 342 341 341 345 350 350 350 352 354 356 356 356 356 357 357 358 356 354 352 353 356 356 356 356 355 354 354 353 354 354 356 357 357 356 356 355 355 355 355 355 356 356 354 352 351 349 349 351 349 347 347 347 345 348 353 356 357 358 358 359 359 360 360 360 359 359 360 361 361 362 362 361 359 359 360 361 360 354 348 347 347
314 317 320 321 326 329 329 331 330 325 324 333 334 322 323 334 338 341 342 344 349 349 351 354 355 358 357 357 358 356 356 357 356 355 354 354 355 356 356 357 356 356 355 354 353 353 355 355 357 357 357 356 355 356 356 357 357 357 355 354 352 351 350 350 349 346 343 343 342 344 351 355 358 358 358 358 359 359 360 360 359 359 359 359 360 360 360 360 360 359 359 361 360 356 352 347 347
312 316 320 321 325 329 328 329 325 319 320 331 335 324 321 327 333 341 342 345 349 350 353 353 355 358 358 357 357 357 357 356 356 355 353 355 355 356 357 357 357 356 355 355 353 354 353 355 357 357 357 357 356 356 357 357 357 358 356 353 351 350 350 349 350 347 342 342 343 343 348 354 358 358 358 358 359 359 360 360 359 358 358 358 359 359 358 358 359 358 359 360 360 357 354 350 346
313 318 321 319 321 325 328 327 323 322 324 330 332 327 321 320 329 340 341 341 348 352 354 354 355 358 357 357 357 357 357 356 357 357 355 355 356 357 358 357 357 356 356 356 354 355 354 355 357 357 358 358 357 358 357 356 357 358 357 354 352 350 349 349 352 350 345 345 346 346 349 355 359 358 358 358 359 359 360 360 359 358 358 358 357 357 357 356 358 360 360 361 361 359 355 353 349
317 320 322 320 320 321 325 325 322 325 325 321 324 326 322 318 327 342 343 338 343 351 354 353 354 356 358 356 355 356 357 357 356 357 355 356 357 358 357 357 358 357 356 357 357 356 356 357 357 358 358 358 358 358 358 357 357 358 357 355 354 352 351 351 353 353 350 351 351 351 351 355 359 359 358 359 360 360 359 359 359 358 358 358 357 355 354 355 357 360 362 363 361 359 357 355 353
319 320 321 322 321 319 320 323 321 322 322 319 320 322 320 318 322 332 335 334 339 348 351 352 354 356 357 357 355 355 357 356 356 356 356 357 359 359 357 358 358 356 357 357 358 357 357 358 358 358 359 359 358 358 358 358 357 356 356 356 355 355 353 353 354 355 354 354 355 353 353 356 358 359 359 359 360 360 360 359 358 358 358 358 358 356 354 355 356 357 360 361 360 360 359 356 355
320 321 322 321 321 320 319 320 320 320 321 320 320 321 321 319 320 326 332 335 339 344 346 350 353 353 356 356 354 354 356 356 356 355 356 359 360 358 358 359 358 357 358 358 358 358 358 359 359 360 360 359 359 359 358 358 357 356 357 357 357 356 356 355 356 357 357 358 356 354 354 356 356 358 358 359 360 360 360 360 358 357 357 357 358 358 356 355 355 356 357 358 359 359 359 358 357
321 321 320 317 316 317 315 316 318 320 319 319 321 324 321 317 320 328 336 339 339 340 342 347 351 352 355 356 355 355 356 356 356 356 356 357 358 360 359 360 359 359 358 359 359 359 360 359 361 361 361 360 360 359 358 357 357 356 357 357 358 358 358 357 358 358 358 359 357 354 356 356 356 358 358 359 360 360 359 359 358 357 358 358 359 358 358 356 355 355 357 357 358 359 359 358 358
321 320 318 313 312 315 315 314 315 317 317 318 321 323 320 319 324 333 338 338 338 339 340 344 348 350 354 355 355 355 355 355 356 357 357 356 357 359 360 360 360 360 359 359 359 359 360 360 361 362 362 362 361 360 358 357 357 356 357 358 358 358 359 358 359 358 358 358 356 356 357 357 358 358 359 358 359 359 358 359 359 359 358 359 359 359 358 358 357 356 357 357 357 358 358 358 358
320 317 315 312 314 317 317 315 315 316 315 317 322 322 318 318 327 336 337 336 337 339 340 340 344 347 351 353 355 353 354 355 356 357 357 357 358 359 360 360 361 361 360 359 359 360 360 361 362 362 362 362 361 360 358 357 357 357 357 358 359 359 359 359 359 357 357 358 357 356 356 356 358 358 358 358 358 358 359 360 360 360 359 359 359 358 358 359 359 358 357 358 357 358 359 358 358
321 321 319 314 313 317 317 314 314 314 313 314 318 319 316 315 325 334 335 336 337 337 337 338 341 342 346 350 352 353 353 354 355 357 356 357 358 359 361 361 361 361 361 360 360 360 360 362 362 363 363 363 361 361 359 357 358 357 357 358 358 359 359 359 359 358 357 358 357 357 356 355 356 357 357 358 359 359 359 361 360 360 359 359 359 358 358 358 359 359 359 358 358 358 359 360 359
323 323 319 314 315 318 317 315 314 313 313 313 314 315 318 323 330 334 334 334 335 334 335 337 338 339 340 345 348 350 350 353 354 356 356 357 359 360 361 360 360 361 360 360 361 360 361 362 362 363 363 363 362 361 359 359 358 358 357 358 358 359 358 359 360 359 358 359 358 358 357 356 355 356 358 359 361 360 360 360 360 359 359 360 359 358 358 358 359 359 359 360 359 357 359 360 359
322 321 316 318 322 321 316 314 315 315 315 315 314 314 319 322 326 331 333 333 333 334 335 334 335 337 338 341 344 347 350 352 353 354 356 357 358 360 360 360 360 361 361 361 360 360 361 362 363 363 363 363 363 362 361 360 360 360 359 358 358 358 358 358 359 359 359 358 359 359 358 358 357 356 358 359 361 362 361 360 359 358 358 358 359 359 358 359 359 359 359 360 360 358 359 360 359
322 319 319 321 324 322 318 314 315 316 316 316 314 314 316 315 318 326 331 330 332 332 333 333 335 336 337 337 340 345 349 350 352 354 356 355 357 359 359 359 360 361 360 360 361 361 361 362 362 364 364 364 363 363 362 362 361 360 359 359 358 358 358 358 359 360 359 359 360 359 357 358 358 357 357 358 360 361 361 361 360 359 358 359 359 358 358 359 359 359 359 360 361 359 360 360 360
323 322 325 323 318 317 317 316 316 316 316 315 312 312 313 312 315 322 327 329 330 332 333 332 333 333 336 337 339 344 346 350 352 353 355 355 356 359 359 358 359 359 360 360 361 361 361 362 362 363 364 363 363 363 362 362 361 360 359 359 359 359 359 359 360 361 360 359 360 359 358 357 358 358 359 359 360 360 362 362 360 359 358 359 359 359 358 359 358 359 359 358 359 361 361 361 360
324 324 326 324 320 318 318 318 317 316 315 315 313 312 312 315 320 324 328 330 328 329 331 332 331 333 334 335 340 343 345 348 351 352 354 354 355 357 358 358 358 358 360 360 361 361 361 361 362 363 363 363 363 363 363 363 362 360 360 360 360 360 360 360 361 361 360 360 359 359 358 358 358 358 359 360 360 359 361 361 360 358 358 357 359 358 359 360 359 359 359 357 358 359 361 361 360
322 320 321 321 321 321 321 319 317 316 315 316 316 314 313 319 327 327 328 331 331 330 331 332 333 332 332 338 339 342 345 348 350 351 353 353 354 356 357 357 357 357 359 360 359 359 360 361 362 363 362 363 364 363 363 363 362 361 361 361 362 361 360 361 362 361 361 360 359 359 359 359 358 359 359 360 361 360 359 360 359 359 358 357 359 359 358 360 359 359 360 359 358 360 360 360 361
323 321 320 320 319 318 318 318 317 315 315 315 317 315 314 322 329 327 326 330 330 331 331 331 332 331 332 337 338 339 346 348 351 351 352 352 353 355 357 357 357 356 359 359 358 359 359 360 361 361 362 362 362 362 363 363 363 362 363 363 363 363 361 362 362 361 361 361 361 361 360 359 359 359 359 360 361 360 359 360 359 359 360 359 360 361 360 359 359 360 360 359 358 359 359 359 361
Wind_Speed
13 12 12 10 9 6 5 5 3 3 4 4 4 3 2 1 3 5 8 8 6 7 7 9 13 10 5 6 8 7 5 5 2 1 4 9 18 20 17 20 21 19 18 17 18 18 17 17 16 16 16 16 17 17 17 17 18 17 17 17 16 16 16 15 14 14 14 13 13 12 12 13 14 14 13 13 12 12 12 12 13 13 12 13 12 11 12 13 14 14 14 15 17 15 14 14 13
13 12 12 10 8 4 2 2 3 3 4 5 3 3 3 5 4 5 9 8 7 9 9 11 14 8 3 7 9 7 8 8 7 6 9 19 22 18 19 20 20 18 18 17 17 17 17 17 16 16 16 16 17 17 17 16 16 16 16 16 16 16 15 15 15 14 14 13 13 13 14 14 14 14 13 12 11 11 12 13 12 12 13 13 12 11 12 14 15 15 15 15 16 15 14 14 13
13 13 13 10 6 3 1 1 3 2 4 4 4 5 6 6 6 7 9 7 9 12 12 13 13 7 5 8 5 4 6 7 11 11 13 23 19 17 22 20 19 18 17 17 16 16 16 16 16 16 15 16 17 17 16 16 15 15 15 16 16 16 15 15 15 14 14 14 14 14 14 13 14 14 13 12 11 11 12 12 12 12 13 13 13 12 13 15 16 15 14 14 15 14 13 14 13
13 13 14 10 4 3 2 3 2 3 3 1 4 6 6 6 8 9 9 9 13 14 13 14 10 4 5 8 5 6 8 7 13 13 13 19 18 21 24 21 20 18 17 16 16 16 16 17 17 16 15 16 16 16 16 15 15 14 15 16 16 16 15 15 16 14 14 15 14 14 13 13 13 12 12 12 12 11 11 12 12 12 13 13 13 14 14 15 16 15 14 14 14 13 13 13 13
13 11 11 6 2 2 2 2 2 3 2 2 3 6 6 7 9 10 10 11 13 14 14 12 8 4 3 7 3 5 9 8 13 14 16 18 21 25 24 23 20 18 17 16 16 16 16 17 16 15 15 15 15 15 15 15 14 14 14 15 16 16 15 15 15 14 14 14 14 14 13 13 13 12 12 12 11 11 10 11 11 11 12 13 13 14 15 15 15 14 14 14 13 12 12 12 13
12 11 7 2 2 1 2 2 3 3 1 2 2 6 7 8 10 11 11 13 12 13 13 10 10 9 6 8 5 6 7 9 13 15 18 22 25 25 24 23 20 19 18 17 17 16 18 17 16 15 15 14 14 15 14 15 14 14 14 15 16 15 15 14 15 14 14 14 13 14 13 13 12 12 12 11 11 11 10 10 10 10 12 12 13 14 15 15 14 13 13 13 11 11 12 12 13
13 9 4 3 3 2 3 3 3 1 3 2 3 6 7 9 10 11 13 13 12 12 11 9 11 10 7 7 7 9 7 10 14 15 20 25 26 25 24 22 20 19 18 17 17 17 18 17 16 15 15 14 14 15 15 14 14 14 13 14 15 14 14 14 14 14 13 13 13 13 13 13 12 12 12 11 11 11 10 10 10 11 11 13 14 14 13 14 13 13 12 11 11 11 11 12 13
11 6 3 4 3 3 4 2 2 3 3 1 3 6 8 10 10 12 13 12 11 12 10 11 12 9 7 7 6 7 8 10 15 19 24 27 26 25 23 22 21 20 18 17 17 18 19 17 16 16 16 15 15 15 15 15 14 14 14 13 14 14 14 14 14 13 13 13 12 12 13 13 12 12 12 11 11 11 10 10 10 11 12 13 14 14 12 13 13 13 12 12 12 12 12 12 12
8 4 2 3 4 3 3 0 3 3 3 2 4 7 9 10 11 12 12 11 11 11 12 13 10 7 8 8 8 7 9 12 19 23 26 27 26 24 22 21 21 20 19 18 18 19 18 16 16 16 16 16 16 15 15 15 14 14 14 13 13 14 14 14 13 13 13 13 12 12 12 13 12 12 12 12 12 11 10 11 11 12 12 12 14 14 12 12 13 13 13 12 12 12 12 12 12
6 3 2 3 4 3 2 2 3 4 4 4 6 9 9 9 10 11 11 11 11 11 13 12 7 8 11 10 8 6 10 17 23 25 26 27 26 23 22 21 20 20 19 18 18 19 18 17 16 16 16 17 16 15 16 14 14 14 14 14 14 14 14 14 14 13 13 13 14 13 13 12 12 12 13 13 12 11 10 11 12 12 12 12 13 13 12 12 12 13 13 12 11 11 11 12 12
4 3 3 3 3 2 2 3 4 5 5 5 8 9 8 8 10 10 10 11 11 11 13 11 8 10 11 9 6 6 13 20 25 26 27 26 24 22 21 20 20 19 19 19 19 18 18 17 16 16 16 16 16 15 15 14 14 15 14 14 14 14 14 14 14 14 14 14 15 14 14 13 13 13 14 13 13 11 12 12 12 12 11 12 12 12 12 12 12 12 13 12 11 11 11 11 11
4 3 4 3 3 2 3 2 4 6 6 6 9 8 7 9 9 9 10 11 11 12 13 10 9 11 10 9 5 9 17 21 25 27 27 25 24 21 20 20 20 19 19 19 19 18 19 17 16 16 16 16 16 15 14 13 15 15 14 14 14 14 14 15 14 15 16 16 15 15 15 14 13 14 14 14 13 13 13 13 13 11 11 11 11 12 12 12 12 12 12 13 12 11 11 11 11
4 3 3 3 3 2 2 0 4 5 6 6 8 8 8 10 9 10 10 11 12 12 12 10 10 9 8 9 7 10 17 22 25 26 26 24 23 21 20 20 20 19 18 19 19 19 18 17 16 16 16 16 16 14 13 14 15 15 15 15 14 15 15 15 15 15 16 16 16 15 15 14 14 14 15 14 14 14 13 12 13 12 11 11 12 12 12 11 11 11 11 12 12 11 11 10 11
4 3 4 3 3 3 3 1 4 5 6 7 8 10 9 8 8 9 9 12 11 10 11 10 10 10 9 9 7 9 16 24 26 26 26 23 22 21 20 21 20 19 18 18 19 19 18 16 16 16 15 15 16 14 14 15 16 15 15 16 15 15 16 16 16 16 16 15 15 15 14 14 14 13 14 14 13 13 12 11 13 13 12 12 12 12 12 11 11 11 10 11 11 11 11 11 11
4 3 4 3 3 3 2 1 3 4 7 10 9 11 10 6 7 9 8 10 9 7 10 10 9 7 9 11 8 11 20 27 28 26 25 23 23 21 21 20 19 19 18 18 18 18 17 16 16 16 16 15 15 14 14 16 16 16 15 16 16 15 15 14 14 14 14 14 13 14 14 14 13 13 13 13 12 12 12 12 12 12 13 13 13 13 12 11 11 10 9 9 9 10 10 10 10
4 3 4 3 4 2 2 2 2 2 6 10 11 11 10 8 8 7 5 6 9 9 9 9 7 3 7 11 13 20 26 29 28 26 25 24 23 21 21 20 18 18 17 18 18 17 17 16 15 15 16 15 14 14 15 15 15 16 15 15 15 14 13 13 13 13 13 13 13 14 14 14 13 13 13 12 12 12 12 12 12 12 13 13 13 14 12 11 11 10 9 9 9 9 9 9 9
4 3 4 4 3 0 1 1 2 1 5 10 12 11 10 10 9 5 5 5 10 11 8 9 7 2 4 11 20 28 30 30 29 27 25 24 22 20 20 19 19 18 17 17 17 16 16 16 15 15 16 15 14 15 15 15 15 15 15 15 14 12 12 12 13 13 13 13 14 13 13 12 11 11 11 11 11 12 12 11 11 11 12 12 13 13 12 11 10 9 8 9 10 9 9 11 11
4 3 4 4 1 2 3 4 4 1 4 9 12 12 9 11 10 7 7 8 10 11 8 9 7 5 8 17 26 30 32 31 29 28 26 24 22 20 20 20 19 18 17 17 16 16 16 16 15 14 16 15 14 14 15 15 15 15 14 13 13 12 12 12 11 11 11 12 12 11 10 10 10 10 10 10 10 11 11 11 11 10 11 11 12 12 12 12 10 8 8 9 10 8 8 11 11
6 4 5 3 2 4 3 4 4 2 3 7 10 12 9 10 11 9 9 11 12 11 10 10 10 11 13 20 26 30 32 31 29 28 27 24 22 21 20 19 19 18 18 17 17 16 15 16 15 14 15 15 14 13 14 15 15 15 14 13 12 12 11 10 10 9 9 10 10 9 9 9 10 10 10 10 10 11 10 10 10 10 11 11 11 11 11 12 11 10 8 9 9 7 7 9 9
6 5 5 1 3 2 2 3 3 3 1 6 9 10 10 9 10 9 10 12 13 11 11 12 12 14 15 18 24 29 30 30 29 27 26 24 22 22 21 20 19 18 18 17 17 16 15 16 15 14 14 14 14 12 12 15 15 14 13 12 12 11 10 9 9 9 9 9 9 8 9 9 9 10 10 9 9 9 9 9 9 10 10 9 9 9 9 9 10 10 8 7 6 5 6 7 8
5 6 5 2 2 1 3 4 6 4 0 5 9 10 10 9 9 9 9 11 11 10 12 13 14 17 17 18 24 28 28 29 28 26 26 24 23 22 21 20 19 18 18 17 17 17 16 16 16 15 15 14 13 12 11 12 13 12 11 11 11 11 10 9 9 9 9 8 8 8 8 8 8 8 8 7 7 8 8 8 8 8 7 7 8 7 7 7 7 7 6 5 4 4 5 7 8
4 7 7 2 1 1 4 3 5 5 1 3 8 10 9 10 9 9 10 8 5 7 11 13 15 19 20 21 23 26 26 27 28 26 26 25 24 23 21 21 19 18 18 18 17 17 17 16 16 16 15 14 13 12 11 11 11 10 10 11 10 10 9 9 9 8 8 8 7 8 8 8 7 7 7 7 7 7 7 7 7 7 6 6 6 6 6 6 5 5 5 5 4 4 5 6 7
6 7 7 5 5 3 1 1 4 4 1 3 7 8 8 10 9 8 10 5 2 5 11 13 15 19 23 24 23 24 24 25 26 27 27 26 26 24 23 22 20 19 18 18 18 17 17 16 16 16 16 15 13 11 11 11 10 10 10 10 10 9 9 9 8 8 8 7 7 7 7 7 7 6 7 6 6 6 6 6 6 6 6 6 5 5 5 5 5 5 5 5 4 5 5 5 7
9 6 6 6 6 6 5 4 4 3 1 1 4 7 8 11 9 7 10 5 4 7 12 14 17 20 23 23 22 23 24 25 26 27 26 26 26 25 23 22 20 20 19 18 18 17 18 17 17 16 16 15 13 12 11 11 10 10 10 10 9 9 9 8 8 8 7 7 6 5 6 6 6 6 6 6 6 6 6 6 6 5 5 5 5 5 5 5 5 5 5 4 4 4 4 4 6
12 10 6 5 7 7 6 5 4 3 1 1 4 7 8 10 7 6 9 6 6 10 14 16 18 20 20 21 23 22 22 25 26 26 25 24 24 24 23 21 20 20 20 19 18 18 18 18 17 17 16 15 13 12 11 11 10 9 9 9 9 9 8 8 8 8 7 6 5 5 5 5 5 6 6 6 6 6 6 5 5 5 5 5 5 5 5 4 4 5 4 4 3 3 3 4 5
10 12 9 6 7 7 6 6 6 5 2 2 5 8 7 9 7 6 9 7 7 13 15 17 19 19 19 19 22 22 22 24 26 27 25 24 24 24 23 21 21 20 20 20 18 18 18 18 18 17 16 15 13 12 11 10 9 9 9 8 8 8 8 7 8 7 7 6 5 5 4 5 5 5 5 5 5 5 5 5 5 5 5 5 4 4 4 4 4 4 4 4 3 3 3 4 3
3 8 11 11 10 8 8 8 8 7 5 4 6 7 7 9 8 6 10 11 10 15 16 17 18 18 19 18 19 20 22 24 26 27 25 24 24 24 24 22 21 21 21 20 19 18 19 19 19 17 16 15 13 12 11 10 9 9 8 8 8 8 7 7 7 6 6 6 6 5 5 4 4 5 5 5 4 5 5 5 4 4 4 4 4 4 4 4 4 4 4 4 3 3 3 3 3
4 5 8 10 12 11 11 11 9 8 5 7 7 7 8 10 9 7 11 15 14 15 17 18 17 17 18 19 18 17 19 24 26 25 25 25 24 24 24 22 22 21 21 21 19 18 20 20 19 18 17 16 14 12 11 10 9 9 8 8 8 8 7 7 7 6 6 5 6 6 4 4 4 4 5 4 4 4 4 4 4 4 4 3 4 4 3 3 3 3 3 3 2 2 3 3 1
9 8 9 9 10 11 13 12 11 9 6 7 7 7 9 10 11 10 11 16 15 15 16 17 16 15 17 17 17 15 17 23 24 24 26 26 25 25 25 23 23 22 21 21 19 19 21 20 19 19 17 17 15 13 12 11 10 10 9 8 8 8 7 7 6 6 6 5 6 5 5 4 4 4 4 4 3 3 4 3 3 4 3 3 3 3 3 3 3 3 3 2 2 1 2 3 1
10 10 9 8 8 10 14 13 12 11 7 8 8 6 7 10 13 12 12 15 16 15 16 16 15 14 15 16 15 15 18 21 22 23 26 26 25 26 25 24 24 22 21 21 21 20 21 20 19 19 18 18 16 14 13 12 11 10 9 9 8 8 7 7 6 6 6 6 5 5 5 4 4 4 4 3 3 3 3 3 3 3 3 3 3 3 4 3 3 3 3 2 2 1 2 3 2
10 9 8 7 7 9 13 14 14 13 9 10 10 5 4 8 12 13 13 16 16 15 15 16 15 14 14 15 15 16 18 21 23 25 25 26 25 25 25 25 24 23 21 22 22 22 21 20 19 19 19 19 17 15 13 12 11 10 10 9 9 8 7 7 6 6 6 6 6 5 5 4 4 4 4 3 2 2 2 2 2 2 2 2 3 4 3 3 3 2 2 2 2 1 1 2 2
8 8 8 9 8 7 11 13 15 14 10 12 11 5 4 7 12 15 15 16 16 14 15 16 15 16 15 15 16 15 17 21 24 25 26 26 24 24 25 25 25 24 22 22 23 22 21 20 19 19 20 19 18 16 14 12 11 10 9 8 8 8 7 7 6 6 7 6 6 5 5 5 4 4 4 3 2 1 1 2 2 2 1 1 2 3 3 3 3 2 2 2 1 2 1 2 2
8 9 9 10 11 9 8 11 15 14 10 13 13 5 3 5 11 17 17 17 17 14 14 16 16 16 16 15 15 15 16 18 21 24 26 26 24 24 25 26 26 24 23 23 23 23 22 20 20 19 20 20 18 17 15 13 12 10 9 8 8 8 7 7 6 6 6 6 6 5 6 6 5 5 4 3 2 1 1 1 1 1 0 1 1 1 2 3 3 2 1 1 2 1 1 2 3
8 9 10 11 14 11 9 10 14 15 11 13 15 9 8 7 9 15 16 17 17 14 15 16 15 15 15 14 14 15 16 17 18 23 27 27 24 24 24 25 26 24 23 23 24 23 22 21 20 19 19 20 18 17 16 14 12 10 9 9 8 8 7 7 6 6 6 6 6 5 6 6 5 5 4 4 2 1 1 1 1 1 1 1 1 0 1 2 2 2 1 1 2 1 1 2 3
11 11 10 11 11 12 13 9 11 16 14 13 14 13 14 10 7 13 15 16 16 15 15 15 16 16 15 14 15 15 16 17 19 24 28 27 25 25 24 25 26 25 23 23 24 23 22 20 20 19 18 19 18 17 16 14 12 11 10 9 9 8 8 7 6 6 6 6 5 6 6 6 6 5 5 4 3 2 2 2 1 1 1 1 1 0 1 1 3 2 0 1 2 1 1 2 3
11 12 12 12 10 10 14 9 7 13 14 13 14 13 14 11 8 11 13 14 15 15 14 14 14 15 15 14 14 15 17 17 20 26 29 27 26 25 25 25 25 25 23 23 24 23 23 21 20 20 18 19 18 17 16 15 14 12 11 11 10 10 10 8 7 7 6 6 6 5 6 7 6 6 5 5 4 3 3 2 1 1 1 1 1 0 0 1 2 2 1 1 1 1 1 2 1
6 9 11 14 12 9 13 12 7 8 10 12 15 14 13 12 13 13 12 14 15 15 15 14 15 15 15 16 16 17 17 16 19 25 28 27 27 26 25 24 25 25 24 24 25 24 24 22 21 21 20 19 19 18 18 17 16 15 14 14 12 12 11 10 9 9 8 7 6 6 7 8 7 7 6 6 5 4 4 3 2 2 2 2 1 1 2 2 2 2 2 1 1 0 1 1 1
6 7 9 11 11 9 10 11 8 7 8 10 14 15 15 14 14 12 12 14 14 15 16 16 18 17 15 17 18 17 15 14 17 21 25 27 27 27 26 24 26 27 25 26 26 25 24 23 22 21 20 20 20 19 18 18 18 16 16 15 14 12 12 12 11 11 10 8 8 8 8 8 8 8 7 6 6 6 5 4 3 3 2 2 1 1 2 3 2 3 2 1 1 0 1 1 1
8 7 7 8 10 9 8 8 7 7 6 8 11 12 13 13 13 12 12 13 13 14 16 16 18 18 16 17 17 17 16 15 18 20 24 28 28 28 27 25 26 27 27 27 26 26 25 24 23 21 21 21 20 19 19 18 18 17 16 15 14 12 11 11 11 11 11 10 9 9 10 10 9 9 8 7 7 7 6 5 4 4 3 3 2 2 2 2 3 3 2 1 2 1 2 2 1
10 8 8 8 9 9 8 9 10 9 7 9 11 10 10 11 12 14 13 13 12 13 17 17 17 17 17 18 17 17 19 18 19 20 22 26 28 29 28 26 27 27 27 27 27 27 26 25 25 23 22 21 20 20 19 18 17 16 15 13 13 11 9 9 10 10 11 11 10 10 11 12 11 10 9 8 8 8 7 6 5 4 4 4 3 2 2 1 1 1 1 2 2 1 2 3 2
12 12 10 9 9 10 8 5 7 9 9 10 11 8 9 11 13 13 12 13 13 13 16 16 16 16 15 15 16 17 19 18 19 20 21 23 26 29 28 27 27 27 27 28 29 28 27 26 26 25 23 22 21 21 20 18 16 16 15 12 11 11 8 8 10 11 12 12 12 11 12 13 12 11 10 9 9 8 8 7 6 5 5 5 4 3 2 2 2 2 2 2 2 2 1 2 2
11 14 14 13 9 9 10 6 4 7 10 12 13 10 8 12 15 14 11 12 14 13 15 17 15 15 14 14 16 18 18 18 19 20 20 22 25 28 29 28 28 28 28 28 29 28 27 26 27 26 24 23 22 22 22 20 18 18 18 16 15 13 12 12 13 14 14 14 13 12 12 13 14 13 11 10 9 8 8 8 7 6 5 5 5 4 3 3 3 2 2 2 1 1 1 1 1
8 10 14 17 13 8 9 9 7 7 8 10 12 11 9 10 15 16 14 14 15 14 15 17 15 14 15 15 15 16 17 18 18 19 20 21 25 27 28 29 30 29 28 28 27 28 27 26 27 27 25 24 23 23 24 22 19 19 20 19 18 17 16 16 15 15 14 13 13 13 12 13 14 14 12 11 10 9 9 8 8 7 6 6 6 5 5 4 3 2 2 1 1 1 0 0 1
8 6 9 16 17 14 11 10 9 7 7 7 10 11 10 9 12 14 16 17 16 16 16 16 15 16 17 16 16 17 18 18 17 19 20 22 25 28 29 30 30 29 28 28 27 28 28 27 28 28 26 24 24 24 25 24 21 20 20 19 18 18 17 16 15 15 14 12 12 13 12 12 13 14 13 12 11 11 10 9 8 8 7 6 6 6 6 5 3 3 2 2 2 2 1 1 1
10 6 5 11 16 18 15 11 9 8 9 9 10 11 10 9 10 10 13 17 17 16 17 16 16 18 18 17 18 19 19 19 19 19 21 22 25 29 30 30 29 29 28 29 28 28 28 28 27 28 26 25 25 25 25 26 24 21 20 19 18 18 18 16 14 15 14 13 13 14 13 12 12 13 14 13 12 12 11 10 9 9 8 7 6 6 6 5 5 4 3 3 3 2 2 2 2
11 8 6 9 13 15 15 11 9 9 11 12 13 13 10 9 11 11 11 14 15 15 14 15 17 18 18 18 18 18 17 17 18 19 20 23 27 30 29 29 29 28 28 28 28 27 28 28 28 28 28 25 25 26 26 26 25 22 20 20 20 19 18 17 15 14 15 15 14 14 14 13 12 12 14 14 14 13 12 11 10 10 9 8 7 6 6 6 6 6 5 4 4 3 2 3 3
12 11 8 9 10 10 11 10 9 10 12 14 16 16 13 10 9 11 11 11 14 14 12 13 16 17 18 17 16 17 17 16 17 18 20 23 27 29 29 29 29 29 27 27 27 27 28 28 28 29 29 26 25 26 26 25 25 23 21 21 22 21 19 18 17 16 16 16 15 15 15 15 14 13 13 14 14 14 13 12 11 10 10 9 8 7 6 6 7 7 6 5 5 4 4 3 3
12 10 9 9 8 8 8 9 10 11 12 12 15 18 16 13 9 10 11 13 15 16 14 14 16 17 16 15 15 17 17 17 17 17 18 20 23 25 28 29 29 29 28 28 28 28 28 28 29 30 29 27 26 26 27 26 25 24 23 22 23 23 21 19 19 18 18 17 17 16 15 15 15 15 14 13 14 14 14 13 12 11 11 10 9 8 7 7 7 7 7 6 6 5 5 4 4
11 10 10 10 8 8 9 10 11 12 11 11 14 16 16 14 11 11 12 12 15 16 15 14 14 15 15 15 16 15 16 16 17 16 16 18 19 21 26 28 29 30 30 30 29 29 28 28 29 30 30 29 27 27 27 27 27 25 24 24 23 23 22 21 20 19 19 18 17 17 16 16 16 16 16 15 14 14 14 14 13 12 12 11 11 10 8 8 7 7 7 7 7 6 6 6 6
12 11 11 11 9 9 10 10 10 11 11 13 14 14 13 13 11 14 16 12 11 13 14 13 12 13 14 15 16 15 16 16 16 16 17 17 18 20 25 28 29 30 31 31 31 30 29 28 30 30 30 30 28 28 28 28 28 27 26 26 24 23 22 21 21 20 20 19 18 18 18 17 17 17 17 16 15 14 14 14 14 13 13 12 12 11 10 9 8 8 8 8 8 7 7 7 7
13 12 11 11 10 8 9 9 10 10 9 13 16 12 10 10 8 11 16 15 12 11 11 11 10 10 11 12 14 15 16 16 15 16 18 19 20 23 27 29 30 31 32 32 31 31 30 29 31 31 31 31 30 29 29 29 28 28 28 27 24 23 22 21 21 20 20 19 18 19 19 18 17 16 16 16 15 15 15 14 14 14 14 13 13 13 12 10 10 9 8 8 9 8 8 8 8
11 12 12 12 10 8 7 7 8 9 8 10 13 9 6 6 5 6 9 13 16 15 14 14 13 12 11 11 13 14 14 16 16 17 18 19 22 25 28 29 30 31 32 32 32 32 31 29 31 32 32 32 31 30 30 29 29 28 28 27 25 24 23 22 21 20 20 20 19 19 19 19 17 15 15 15 15 16 16 15 15 15 15 14 14 14 13 11 11 10 9 9 9 9 9 9 9
9 11 12 11 11 10 8 8 7 7 9 8 9 10 8 7 7 8 9 10 13 16 17 18 17 16 14 12 12 13 14 15 16 17 18 19 21 25 28 30 31 32 33 34 33 33 32 31 31 32 32 31 31 31 30 30 29 27 27 28 26 25 25 24 22 21 21 20 20 19 19 18 17 16 15 15 15 16 16 16 15 15 15 15 15 14 14 13 12 11 10 9 10 9 10 10 10
7 10 12 11 12 12 8 8 8 8 10 7 9 12 11 9 8 10 15 16 14 14 15 16 17 17 17 15 14 14 15 15 17 18 18 19 20 23 28 30 32 34 34 35 35 34 32 31 31 32 33 32 32 32 30 30 29 27 27 28 28 26 26 25 22 22 22 20 20 20 19 18 18 17 16 15 15 15 16 16 15 15 15 15 15 15 14 14 13 12 11 10 10 10 10 11 10
14 9 10 11 11 11 9 8 8 10 10 7 10 14 12 10 8 7 14 19 18 16 14 15 17 16 15 16 16 17 17 15 16 17 17 18 19 23 28 31 32 34 34 35 35 34 33 32 32 33 33 33 32 31 30 30 30 28 27 28 29 27 26 25 23 22 21 21 20 20 19 19 18 18 17 16 16 15 15 15 16 15 15 15 16 15 15 15 14 13 12 11 11 10 11 11 11
16 13 10 12 9 9 9 8 8 8 8 8 10 12 9 9 10 9 10 13 17 19 16 14 16 16 14 14 15 16 16 15 15 16 17 18 20 25 31 32 33 34 34 34 35 35 34 33 32 32 32 32 32 32 31 30 30 29 27 27 28 28 27 25 23 22 22 22 22 21 20 20 19 18 18 18 18 17 16 16 16 16 16 16 16 16 15 15 15 14 13 12 11 11 11 12 12
14 13 12 12 10 9 10 9 9 8 8 7 7 8 7 6 9 12 10 7 9 13 14 13 14 15 14 14 14 14 15 15 15 16 17 19 21 25 30 31 31 32 32 32 34 34 34 33 32 33 33 33 33 33 32 31 30 30 28 28 29 29 28 25 24 23 23 22 22 21 20 19 19 19 18 18 18 18 17 17 16 16 16 16 16 16 15 15 15 15 14 13 12 11 12 12 12
9 13 14 14 12 11 11 10 11 10 8 7 7 6 4 3 5 9 11 9 8 9 11 12 12 14 14 14 15 14 14 15 16 16 18 19 19 22 27 29 29 30 31 33 34 33 34 34 33 33 33 34 34 34 33 31 31 30 30 30 29 28 28 26 25 24 24 22 22 22 21 19 19 19 19 19 19 18 18 18 17 17 16 16 16 16 16 15 16 15 15 14 13 13 13 13 13
Wind_Direction
152 158 156 162 166 176 192 221 222 189 230 234 202 142 139 81 90 132 129 130 133 152 148 140 146 138 135 134 117 75 83 127 43 56 112 120 135 138 145 142 139 136 132 131 131 127 125 128 127 126 124 123 123 124 125 125 124 124 124 123 122 122 124 125 127 126 124 125 123 124 125 123 123 120 115 115 115 115 114 110 106 104 101 97 97 94 89 91 100 106 104 110 116 117 117 112 107
156 154 154 158 162 190 184 220 257 186 218 226 167 115 149 148 156 144 143 158 137 144 149 145 152 147 115 113 118 93 81 61 56 85 106 130 135 137 146 144 140 135 132 131 131 128 127 129 127 126 124 123 123 121 120 119 118 118 119 118 118 119 122 125 124 123 122 124 122 122 120 121 123 118 114 115 114 114 111 108 106 104 101 99 98 92 89 93 98 105 109 113 114 114 112 105 101
157 153 153 150 156 214 184 214 258 221 224 217 125 120 156 160 167 148 151 154 130 145 151 151 152 139 132 128 130 112 99 75 99 109 120 138 138 143 149 145 141 135 132 131 129 128 128 131 127 124 124 124 122 120 119 116 115 115 116 116 116 118 121 122 120 120 121 121 121 119 118 119 119 116 114 116 115 114 113 111 108 103 101 100 98 94 91 92 96 102 108 110 108 108 106 102 102
157 159 160 159 173 212 210 211 259 271 252 234 106 120 143 148 147 137 138 136 138 152 150 150 139 117 152 132 109 97 107 102 116 122 135 146 144 145 148 145 142 137 134 132 130 128 131 134 129 126 126 124 122 121 120 117 116 116 117 116 117 120 120 118 117 118 116 116 118 116 116 117 114 114 114 115 115 113 115 116 112 107 103 99 97 97 94 94 100 103 105 104 104 107 107 108 108
156 164 170 180 207 202 238 235 266 262 281 1 104 120 127 126 129 129 131 136 147 152 148 151 130 127 120 86 77 111 110 111 125 135 140 144 143 145 148 145 144 141 137 133 133 130 134 136 131 130 127 125 125 124 123 121 119 117 117 116 116 117 116 116 115 115 113 113 115 115 115 116 115 115 116 115 116 112 113 114 110 106 102 99 97 98 99 101 105 106 106 105 106 109 111 112 107
155 162 169 227 276 262 274 228 237 235 63 359 90 107 124 126 130 133 132 138 149 151 149 150 137 142 111 67 56 80 97 123 136 144 141 140 144 147 147 146 145 143 138 135 134 132 137 138 133 132 129 128 127 126 125 123 122 120 118 116 115 113 113 115 115 114 114 114 114 116 115 115 117 116 115 114 115 114 111 109 104 100 100 99 95 95 99 101 103 105 105 108 110 111 112 111 104
161 163 161 231 253 233 252 220 223 102 72 354 54 100 129 130 134 135 135 143 149 153 152 145 140 132 114 110 85 69 80 124 138 143 142 142 145 147 148 148 145 142 139 136 134 135 140 139 136 135 132 131 128 127 127 126 125 123 119 115 114 113 113 114 113 114 115 115 114 114 114 114 112 111 112 113 113 113 111 108 103 101 102 99 97 97 97 99 101 101 103 107 109 109 110 108 103
176 191 191 218 245 205 240 233 113 73 79 355 60 106 130 135 142 141 143 150 150 156 157 151 145 114 110 136 99 87 101 126 138 138 140 143 145 148 150 150 146 144 141 137 135 137 141 140 139 136 134 132 129 128 129 128 126 125 121 115 114 114 114 113 113 114 115 114 113 111 110 110 110 112 114 112 108 109 112 111 106 103 103 102 104 105 101 101 102 102 103 106 107 107 107 105 103
187 233 223 220 269 224 226 144 99 102 120 125 107 117 133 147 148 146 151 151 151 160 161 160 158 119 118 118 96 109 117 129 138 138 143 145 146 148 150 151 147 145 141 137 136 138 141 142 140 136 135 132 130 131 131 127 126 128 124 119 118 117 115 114 114 113 115 115 113 109 108 110 112 114 113 109 107 107 109 108 106 103 104 104 104 107 105 100 98 98 98 99 103 105 104 103 100
190 240 249 243 267 240 176 108 107 106 102 105 121 131 146 154 148 152 157 151 157 162 158 164 163 125 122 112 100 110 120 135 140 142 148 147 147 148 149 152 148 145 142 139 138 140 142 144 140 135 136 132 131 132 130 127 129 131 127 122 120 120 118 116 114 112 114 115 113 110 110 112 112 111 109 109 108 108 107 106 106 105 106 106 105 107 106 98 93 94 93 92 95 97 99 101 101
207 218 242 264 269 289 61 87 99 103 105 110 125 139 151 151 152 159 155 153 165 157 153 165 149 126 121 109 98 110 129 143 146 146 150 149 149 148 148 150 148 146 142 141 141 141 142 144 139 135 135 131 130 129 127 130 132 130 126 125 122 121 121 118 116 113 113 113 114 113 113 113 110 109 109 109 108 108 107 105 103 103 106 107 106 107 105 100 96 94 91 89 89 90 92 97 103
237 211 226 280 306 346 17 57 94 106 124 135 136 146 157 157 159 162 159 161 164 153 156 168 146 137 127 112 110 129 142 151 150 149 150 151 150 148 148 148 149 148 143 142 142 142 142 144 140 136 136 131 129 127 128 133 130 127 127 127 125 124 123 120 118 115 114 113 112 110 111 111 108 107 107 107 106 104 102 103 103 103 106 109 108 105 104 101 98 93 88 87 87 88 89 93 99
239 247 254 287 320 336 324 25 109 125 139 141 142 147 160 166 163 160 165 162 160 158 159 161 147 142 119 109 126 142 150 153 151 150 151 153 152 149 148 149 150 148 145 145 144 143 144 144 142 140 139 134 131 131 133 131 126 128 130 128 127 125 122 120 117 116 114 112 110 107 107 107 106 104 102 100 100 100 99 103 107 107 108 109 111 107 105 101 96 92 87 86 84 84 87 89 92
229 291 288 287 308 285 274 200 135 163 139 129 139 147 165 167 159 159 164 161 159 158 145 147 148 133 115 120 139 152 154 154 153 152 154 154 152 151 150 150 151 149 148 148 147 145 145 145 145 142 140 136 131 131 132 128 127 130 131 129 127 124 121 119 118 116 114 113 111 109 107 105 103 99 96 95 94 98 102 105 107 111 111 107 110 108 106 104 96 92 86 83 83 84 88 90 93
223 296 278 274 278 239 236 176 158 182 128 133 147 151 161 148 157 161 161 158 140 129 130 146 160 137 146 157 158 159 156 156 155 154 155 155 153 152 150 149 150 150 150 150 150 148 147 147 146 144 141 138 133 133 133 131 131 132 131 129 126 123 121 120 119 115 114 115 114 112 110 107 103 101 101 99 97 98 101 104 105 109 108 104 106 104 103 103 99 96 90 81 80 86 92 96 98
210 264 263 261 261 225 176 169 162 180 122 137 151 159 158 140 172 165 136 144 124 136 149 156 165 143 166 165 153 154 156 157 157 156 156 155 154 152 150 151 152 151 152 152 154 152 149 148 148 147 144 141 139 137 135 136 136 134 133 130 127 125 123 121 119 117 115 116 116 114 110 107 104 104 104 104 104 102 101 100 100 100 100 100 103 103 101 100 98 99 98 91 86 87 94 97 95
208 241 256 246 237 156 108 105 82 160 133 138 154 170 163 146 174 153 116 146 136 153 162 147 147 126 145 142 144 150 154 157 158 158 157 157 156 155 155 155 155 154 156 156 158 155 152 151 150 150 148 144 142 139 137 140 142 138 135 133 130 128 127 123 121 119 117 115 113 108 106 106 107 106 104 104 103 100 100 97 96 95 96 98 99 101 101 97 93 96 98 95 92 90 92 85 81
210 219 241 244 206 67 36 24 44 140 145 142 165 179 173 157 166 153 154 162 145 153 148 134 132 105 107 124 140 148 152 156 160 161 159 161 160 158 160 160 160 158 159 160 161 159 155 153 153 154 151 145 145 143 142 146 147 144 140 137 133 133 130 125 125 123 118 116 112 108 108 111 111 110 107 106 103 101 101 99 98 98 97 98 98 101 104 102 97 90 83 85 91 95 101 94 93
216 230 237 239 81 67 33 10 23 10 106 142 173 184 185 166 161 166 173 161 153 159 148 142 133 117 118 130 143 150 153 158 162 164 162 164 164 162 162 162 162 160 161 163 163 163 160 157 156 158 154 149 149 148 148 151 151 149 145 142 138 138 136 130 130 128 122 120 117 116 115 113 112 111 108 107 104 102 102 100 100 98 97 96 95 97 102 107 107 97 83 76 73 80 105 99 94
219 240 244 188 82 67 54 18 19 10 100 164 175 184 193 169 160 179 178 162 168 172 158 158 149 139 140 143 150 153 157 161 164 166 165 165 165 164 164 163 164 163 164 163 163 164 163 161 158 160 159 156 153 152 154 153 154 152 147 146 144 144 143 138 135 130 128 125 120 119 116 113 111 108 106 103 100 102 101 98 94 92 95 98 97 93 93 98 103 101 95 87 69 77 115 99 81
205 224 252 60 101 182 110 60 36 32 310 187 172 179 189 170 167 186 180 170 178 181 171 170 159 149 150 152 157 159 161 163 166 169 167 167 166 166 166 166 166 165 165 162 162 165 165 165 162 162 163 161 158 156 157 155 153 151 149 149 148 150 149 144 141 135 131 128 124 122 120 117 113 111 108 106 106 109 109 106 100 98 99 99 99 96 92 87 92 98 94 99 100 100 106 92 87
227 223 251 299 228 222 114 81 21 20 358 184 174 181 181 170 181 192 188 182 179 180 172 168 156 148 152 157 161 164 166 167 170 171 168 169 168 167 168 168 167 164 165 164 163 165 166 167 165 164 166 165 163 159 157 157 155 153 153 154 153 153 152 149 146 141 137 133 130 127 125 122 117 115 112 111 111 110 110 109 106 107 106 99 94 88 82 75 76 82 76 77 85 85 74 70 79
241 222 234 244 247 265 200 270 337 352 16 164 177 183 175 175 190 197 196 184 79 156 159 152 150 149 152 157 164 168 170 171 172 172 171 171 170 170 169 170 169 166 166 165 163 165 167 169 167 166 167 168 167 162 159 159 160 159 157 158 157 155 153 153 149 144 142 136 132 130 129 126 121 118 115 113 111 109 107 106 105 105 103 97 89 79 69 61 60 62 65 65 58 66 70 70 74
237 242 233 229 241 248 244 267 297 314 6 163 179 183 185 188 190 189 197 183 89 127 140 141 144 149 154 158 167 172 172 174 174 173 172 173 173 171 170 171 170 167 166 166 164 165 168 170 169 169 169 170 169 166 164 163 164 161 160 162 159 157 157 156 151 145 142 138 133 131 126 123 121 119 119 115 109 106 102 102 103 98 92 84 76 68 58 53 54 56 59 61 59 58 64 71 77
229 246 247 233 242 242 242 253 265 275 255 195 183 189 194 192 192 186 192 182 126 129 133 141 144 150 158 162 168 173 174 175 174 173 174 174 174 173 172 172 171 169 168 166 165 166 169 170 170 171 171 172 172 170 168 166 165 164 163 165 162 160 161 156 152 148 143 142 136 132 125 118 119 117 116 113 107 103 100 99 94 88 80 73 68 56 51 50 49 52 50 51 57 57 63 69 76
222 237 245 242 243 235 240 247 251 256 232 200 194 198 195 188 200 195 185 185 149 140 142 147 150 155 161 166 169 173 175 175 175 175 174 174 174 175 176 174 173 172 169 167 167 167 168 170 171 173 172 173 174 172 172 168 166 167 166 167 165 164 165 156 154 153 148 146 142 141 129 115 114 113 113 110 106 102 99 93 86 86 81 73 65 53 47 45 41 41 39 35 40 52 63 65 70
221 243 250 250 253 248 249 251 247 250 235 219 213 200 186 181 199 199 172 180 167 150 151 153 156 160 162 167 171 174 176 176 176 175 174 175 175 177 178 177 176 174 170 170 169 168 169 170 171 173 173 175 175 175 174 170 168 169 169 169 167 167 166 160 159 157 151 145 143 146 134 121 111 108 112 108 106 103 96 91 83 82 80 79 70 61 51 39 35 30 26 20 29 53 63 69 78
261 267 268 252 251 249 242 243 237 236 224 208 215 210 193 179 198 216 165 165 170 160 158 159 162 163 163 168 170 174 177 176 176 176 177 177 177 179 180 179 177 174 173 173 171 169 170 172 172 172 174 176 177 178 175 174 173 172 173 172 171 171 168 165 164 159 152 145 143 146 140 134 119 113 114 103 101 99 93 90 83 78 75 77 68 57 40 33 30 21 22 21 40 66 73 79 95
254 258 272 259 246 241 228 226 221 219 205 181 203 216 205 190 200 212 163 156 169 167 163 163 166 165 164 168 169 174 178 176 178 180 181 179 179 181 181 180 177 175 174 174 171 170 172 173 173 173 175 177 179 180 178 179 178 176 177 176 174 173 172 173 169 162 156 149 148 150 148 146 132 117 111 99 98 97 93 87 80 78 63 47 41 34 25 30 33 25 27 30 60 96 102 102 162
244 240 257 263 249 235 217 213 208 209 198 175 202 220 208 201 202 197 162 161 173 170 168 168 169 167 168 170 170 175 177 178 181 183 182 180 180 181 182 181 178 176 174 174 174 173 173 173 174 176 177 179 181 181 180 181 180 178 180 178 176 175 177 179 172 167 160 155 157 159 156 154 146 124 112 103 97 94 96 90 82 79 66 43 15 10 22 32 43 36 28 36 66 106 117 117 139
229 227 235 244 247 227 200 200 201 201 188 182 206 233 218 191 192 190 168 169 177 174 175 173 171 170 170 172 172 176 178 181 184 183 183 182 181 182 182 180 179 178 175 175 176 174 173 174 175 177 179 181 182 183 181 181 181 180 181 179 179 179 179 180 177 172 167 164 162 164 167 164 162 147 132 120 106 105 106 99 95 78 68 57 11 3 18 32 40 32 24 37 73 106 121 130 128
213 219 221 219 234 217 183 188 200 200 180 184 205 227 230 186 181 185 172 176 183 180 180 176 175 174 172 175 175 178 180 183 185 184 185 184 183 183 183 181 180 180 177 175 176 175 175 175 176 177 179 182 183 184 182 181 182 181 182 180 182 184 183 183 180 174 170 171 166 165 173 173 172 163 159 153 130 137 123 104 108 86 54 62 42 13 18 26 25 25 30 40 70 85 133 155 135
203 216 221 209 215 214 187 183 195 202 183 186 204 212 243 200 176 176 172 182 188 185 185 179 179 177 175 177 176 180 180 182 186 186 185 185 184 184 183 183 182 181 179 177 175 175 177 176 178 180 181 183 184 185 184 183 184 182 184 183 184 188 189 188 185 181 175 173 173 170 174 179 181 175 178 181 163 179 168 125 113 111 106 78 74 27 21 27 17 14 26 61 79 76 174 153 127
194 209 225 216 211 213 204 183 185 201 197 195 201 201 231 216 162 169 176 186 190 189 189 183 182 180 178 180 179 182 182 183 187 187 185 185 185 184 184 183 183 182 180 179 177 176 178 177 180 182 182 184 184 185 185 186 186 185 188 190 191 192 194 195 191 190 187 181 180 177 177 183 188 187 190 196 191 207 215 207 172 139 162 141 110 91 51 30 17 15 7 62 68 54 26 65 88
198 197 216 219 211 210 210 193 181 198 204 207 202 202 223 222 164 173 182 186 192 194 191 186 185 182 180 182 183 184 185 186 188 187 186 185 185 184 184 183 183 184 182 181 179 177 179 178 180 182 182 184 184 184 185 186 188 190 193 195 197 201 202 203 200 198 197 194 188 184 185 186 192 196 198 206 206 206 216 218 209 186 185 173 175 162 90 18 15 40 75 43 44 38 27 43 62
219 208 211 217 213 212 210 198 178 199 209 214 215 214 217 215 199 193 186 188 196 196 191 188 187 185 183 185 187 187 189 190 187 186 186 184 185 184 183 184 184 185 184 182 180 179 180 179 179 181 182 183 182 181 183 187 191 195 198 200 201 205 207 208 209 207 205 203 197 194 194 193 196 199 202 210 211 212 215 213 208 205 211 207 221 239 194 335 21 51 68 16 21 18 46 54 58
259 232 217 220 221 213 204 195 180 202 218 214 218 228 220 210 211 203 188 192 199 197 193 189 189 188 186 188 190 189 192 191 184 185 186 185 185 185 184 184 184 185 185 184 183 182 183 182 181 182 183 183 182 183 185 188 192 194 198 202 204 205 206 209 211 211 212 209 203 202 201 201 203 205 208 212 212 215 212 210 209 200 215 217 184 275 280 312 15 47 49 9 353 60 83 82 84
255 246 223 221 224 217 200 191 180 196 225 220 216 228 228 220 220 208 190 197 202 200 197 192 192 192 188 190 191 190 190 186 182 183 185 186 185 185 184 185 185 186 186 185 185 185 185 186 185 184 183 184 186 186 186 189 194 196 198 202 205 205 205 207 211 212 213 211 207 208 207 207 211 212 213 214 214 213 208 207 207 202 213 216 171 206 265 304 354 30 38 11 324 155 109 80 98
236 240 232 224 220 219 204 187 187 200 223 229 219 225 232 227 227 224 202 198 203 203 201 197 194 192 190 192 191 187 186 184 182 182 184 186 186 185 185 186 187 187 186 187 187 187 186 188 189 186 185 187 189 189 189 191 195 197 199 201 204 205 206 208 211 211 211 213 210 210 211 211 215 218 216 215 214 213 211 209 208 205 207 210 199 189 221 309 348 10 18 326 286 204 149 118 111
231 232 233 228 215 219 219 197 200 215 225 237 235 233 237 229 225 230 216 200 202 205 205 202 197 197 195 192 189 186 185 185 184 183 183 185 185 186 186 186 187 187 188 188 188 188 188 190 191 189 189 189 190 190 191 192 193 194 196 197 199 203 204 202 205 208 210 213 212 209 210 213 216 219 218 217 215 214 215 215 217 216 210 211 213 195 198 261 302 290 257 250 273 264 139 123 111
228 229 233 231 216 222 237 207 191 215 224 233 242 241 237 228 222 225 216 202 203 206 205 204 202 202 200 194 191 190 188 186 185 184 184 184 185 187 187 186 186 187 189 189 189 189 190 191 191 191 191 191 191 191 190 189 188 188 187 185 187 193 196 195 201 209 212 213 215 213 211 212 216 218 219 220 218 218 219 220 222 221 223 220 216 215 217 227 236 245 248 243 266 307 32 96 109
225 223 228 237 235 227 236 237 208 221 223 214 223 239 237 222 222 223 212 201 204 204 202 203 201 198 198 197 194 193 191 188 187 186 185 185 186 186 187 187 187 188 189 190 190 191 191 191 190 190 191 192 193 191 189 187 186 186 183 182 185 189 196 202 207 212 214 215 216 216 212 210 213 215 218 220 220 221 222 222 222 220 223 221 217 221 222 228 240 245 250 253 262 302 1 55 113
231 214 216 230 243 243 237 240 230 231 233 201 201 234 244 221 222 222 214 208 204 201 201 201 197 193 196 198 195 193 192 190 189 188 187 186 186 187 189 189 190 190 189 188 189 191 191 189 188 189 190 192 193 192 190 188 190 191 189 191 195 196 201 208 211 214 216 215 215 214 213 210 211 212 215 217 218 221 222 221 221 220 221 221 218 221 223 227 231 225 230 247 258 242 186 158 160
233 204 204 221 231 238 240 243 239 240 250 211 193 226 246 234 223 215 213 213 205 199 201 199 195 195 198 200 196 194 193 190 189 189 189 188 187 189 190 191 192 191 187 186 188 190 189 187 187 188 189 191 192 192 191 192 193 194 194 197 201 202 207 209 209 210 212 210 210 210 211 211 210 211 213 215 216 218 220 220 219 220 221 222 218 221 227 229 223 214 217 223 231 223 187 192 221
229 209 206 221 226 232 236 244 245 241 249 236 211 217 236 239 224 210 211 215 209 203 203 200 196 197 200 201 199 195 194 191 191 190 189 189 190 191 192 191 192 192 188 187 187 187 187 186 186 186 188 190 191 191 192 194 196 196 196 198 202 205 208 209 207 206 205 204 205 205 208 211 211 212 214 216 217 216 217 218 218 220 221 222 222 223 227 225 222 220 216 217 223 225 205 197 209
229 219 220 230 228 229 231 238 247 243 244 240 223 214 226 239 222 211 211 213 212 209 206 202 198 198 200 201 200 196 194 193 193 193 191 191 191 192 191 191 192 193 191 188 187 186 185 185 185 186 189 190 190 190 191 194 197 198 199 200 201 202 203 205 205 201 198 198 201 203 205 210 213 215 216 218 219 218 217 217 217 220 220 222 225 225 224 222 222 224 223 224 223 225 217 206 211
225 218 217 225 224 224 226 230 240 245 241 235 226 220 227 240 226 214 213 210 213 214 209 202 199 199 199 200 200 196 193 193 194 195 194 192 192 191 190 190 191 192 191 189 188 187 185 185 185 186 189 189 189 190 191 196 198 199 201 200 201 201 198 198 199 196 195 195 200 203 204 208 212 216 218 218 219 218 218 218 217 219 220 222 225 225 224 221 220 220 221 223 225 227 224 220 225
221 213 208 216 213 209 219 220 221 236 240 231 225 223 229 237 229 219 214 207 213 217 211 202 199 199 198 197 198 197 194 194 194 194 193 191 190 190 190 191 190 190 191 191 190 188 186 186 185 185 188 188 189 190 192 199 201 201 203 203 202 202 198 196 197 196 195 196 200 203 203 205 209 213 216 217 218 217 217 219 220 220 220 222 225 225 225 223 221 219 217 220 223 223 224 226 232
214 208 205 210 203 195 208 211 213 227 237 233 226 222 228 238 233 226 225 212 210 217 215 206 200 197 196 194 196 197 195 194 193 193 192 190 189 189 189 190 189 189 191 191 191 190 188 186 185 185 187 188 189 190 192 200 204 203 204 205 205 203 200 199 200 199 199 201 202 202 202 203 205 208 213 216 217 216 215 218 220 220 221 223 226 228 229 227 225 222 220 220 222 223 223 225 233
206 204 203 208 199 195 206 209 215 228 229 227 231 231 235 241 231 221 226 222 211 212 212 210 206 202 197 194 195 196 195 194 193 193 192 191 189 188 189 189 188 190 191 191 191 190 188 187 186 186 187 187 188 190 192 198 203 204 205 206 205 204 202 202 203 203 204 204 203 203 205 207 207 208 211 214 215 215 215 217 219 220 223 225 229 233 235 234 230 228 227 225 223 225 225 226 232
204 206 210 216 210 206 210 208 213 224 223 214 220 231 237 236 227 217 222 223 215 210 207 207 210 209 203 196 195 195 194 194 193 194 195 192 189 188 189 189 189 190 191 191 191 190 189 188 186 185 186 187 188 189 191 195 201 204 207 207 205 205 205 204 205 207 206 205 205 205 207 209 211 212 211 211 212 213 215 216 218 219 223 226 230 233 235 235 234 231 230 229 226 225 224 227 231
196 204 215 218 217 220 227 232 228 230 232 211 207 219 231 232 227 207 215 219 214 217 218 215 214 212 208 203 198 196 195 194 194 195 197 194 190 189 189 189 189 189 190 191 191 190 190 189 187 186 186 187 188 190 191 195 199 201 204 206 205 206 208 207 206 206 205 205 205 205 207 209 212 211 209 209 209 211 213 216 219 221 223 226 229 231 231 231 233 232 231 229 227 226 224 225 229
187 199 217 217 220 229 236 243 241 241 241 218 203 217 224 237 236 210 210 218 212 216 222 220 218 216 215 213 205 199 195 195 196 197 197 194 191 191 190 190 189 189 190 191 190 190 190 189 187 186 186 186 188 189 191 194 195 196 200 205 205 205 208 209 207 205 204 204 204 206 208 209 210 210 210 209 208 208 211 215 220 223 224 226 228 230 230 229 229 231 231 229 227 226 225 226 229
216 199 204 208 222 230 236 238 225 224 235 220 207 218 218 223 230 211 211 218 215 214 218 218 218 219 219 217 211 203 198 197 199 199 196 193 192 192 192 192 191 190 189 189 189 189 190 190 188 186 186 186 187 189 190 191 192 194 198 203 205 205 207 208 207 204 202 202 203 205 207 208 208 210 210 210 208 207 209 213 217 221 223 225 226 227 228 227 228 231 231 230 229 226 225 227 228
245 238 203 199 217 218 216 230 225 219 228 222 215 222 221 221 222 208 211 216 216 214 215 217 219 219 218 216 211 205 200 199 201 199 196 193 193 193 193 194 193 191 190 189 188 187 189 190 190 189 188 187 187 188 190 191 193 195 198 202 203 204 205 205 204 203 201 201 203 205 206 207 207 208 208 207 207 207 207 210 215 219 221 224 225 226 226 226 226 228 230 230 229 225 225 229 229
238 256 230 209 217 218 209 220 231 229 231 226 218 220 224 225 226 225 221 216 214 213 211 216 220 219 214 210 209 205 200 200 200 198 197 196 195 195 194 194 193 191 190 188 188 188 190 190 190 191 190 188 188 189 190 191 193 195 197 200 202 202 203 203 202 201 199 202 205 206 206 207 206 206 206 206 207 208 208 209 213 217 219 221 223 224 225 224 225 225 227 229 228 224 224 229 232
214 227 226 216 213 217 219 221 224 229 236 230 221 223 222 211 216 225 225 215 211 213 213 214 217 220 215 207 209 207 199 199 199 197 198 197 197 197 196 194 193 191 189 189 190 190 190 190 190 190 190 189 189 189 190 191 193 194 195 197 199 199 200 200 200 199 199 202 204 205 206 205 205 205 205 205 207 209 210 211 213 214 216 218 219 221 222 223 224 223 222 224 225 224 225 230 233
219 213 217 221 216 212 219 225 218 220 233 234 229 233 219 150 177 213 220 222 222 217 220 221 218 221 218 212 213 208 199 199 198 197 200 199 197 197 194 192 191 190 190 191 191 190 190 191 191 190 190 191 191 190 189 190 191 193 194 195 196 196 196 198 198 198 200 202 203 204 204 203 203 204 204 205 207 209 211 212 213 214 214 214 215 217 219 222 223 222 220 221 222 222 224 227 231